Time,TemperatureF,DewpointF,PressureIn,WindDirection,WindDirectionDegrees,WindSpeedMPH,WindSpeedGustMPH,Humidity,HourlyPrecipIn,Conditions,Clouds,dailyrainin,SoftwareType,DateUTC
2013-05-24 00:02:00,46.0,39.0,-100.00,East,95,6.0,6.0,76,0.00,,,0.00,,2013-05-24 05:02:00,
2013-05-24 00:12:00,45.0,39.0,-100.00,East,95,6.0,7.0,80,0.00,,,0.00,,2013-05-24 05:12:00,
2013-05-24 00:22:00,44.0,39.0,-100.00,East,90,7.0,7.0,84,0.00,,,0.00,,2013-05-24 05:22:00,
2013-05-24 00:32:00,44.0,41.0,-100.00,East,95,6.0,7.0,85,0.00,,,0.00,,2013-05-24 05:32:00,
2013-05-24 00:42:00,43.0,41.0,-100.00,East,90,7.0,7.0,88,0.00,,,0.00,,2013-05-24 05:42:00,
2013-05-24 00:52:00,43.0,41.0,-100.00,East,90,6.0,8.0,89,0.00,,,0.00,,2013-05-24 05:52:00,
2013-05-24 01:02:00,44.0,41.0,-100.00,East,100,6.0,6.0,89,0.00,,,0.00,,2013-05-24 06:02:00,
2013-05-24 01:12:00,44.0,41.0,-100.00,ESE,110,4.0,6.0,88,0.00,,,0.00,,2013-05-24 06:12:00,
2013-05-24 01:21:00,43.0,41.0,-100.00,East,95,6.0,7.0,90,0.00,,,0.00,,2013-05-24 06:21:00,
2013-05-24 01:32:00,43.0,41.0,-100.00,East,95,8.0,9.0,92,0.00,,,0.00,,2013-05-24 06:32:00,
2013-05-24 01:41:00,43.0,41.0,-100.00,ESE,105,6.0,8.0,92,0.00,,,0.00,,2013-05-24 06:41:00,
2013-05-24 01:52:00,43.0,41.0,-100.00,East,100,6.0,6.0,92,0.00,,,0.00,,2013-05-24 06:52:00,
2013-05-24 02:01:00,44.0,41.0,-100.00,ESE,110,6.0,7.0,92,0.00,,,0.00,,2013-05-24 07:01:00,
2013-05-24 02:11:00,44.0,41.0,-100.00,ESE,110,6.0,7.0,91,0.00,,,0.00,,2013-05-24 07:11:00,
2013-05-24 02:22:00,44.0,41.0,-100.00,ESE,105,7.0,9.0,90,0.00,,,0.00,,2013-05-24 07:22:00,
2013-05-24 02:32:00,44.0,41.0,-100.00,ESE,105,7.0,9.0,89,0.00,,,0.00,,2013-05-24 07:32:00,
2013-05-24 02:42:00,43.0,41.0,-100.00,ESE,105,6.0,8.0,90,0.00,,,0.00,,2013-05-24 07:42:00,
2013-05-24 02:52:00,43.0,41.0,-100.00,ESE,110,6.0,7.0,91,0.00,,,0.00,,2013-05-24 07:52:00,
2013-05-24 03:02:00,44.0,41.0,-100.00,ESE,105,6.0,7.0,89,0.00,,,0.00,,2013-05-24 08:02:00,
2013-05-24 03:11:00,46.0,43.0,-100.00,ESE,105,4.0,7.0,87,0.00,,,0.00,,2013-05-24 08:11:00,
2013-05-24 03:22:00,46.0,43.0,-100.00,ESE,110,6.0,9.0,85,0.00,,,0.00,,2013-05-24 08:22:00,
2013-05-24 03:32:00,46.0,43.0,-100.00,ESE,115,6.0,7.0,86,0.00,,,0.00,,2013-05-24 08:32:00,
2013-05-24 03:42:00,46.0,43.0,-100.00,ESE,110,7.0,9.0,88,0.00,,,0.00,,2013-05-24 08:42:00,
2013-05-24 03:51:00,46.0,43.0,-100.00,ESE,115,6.0,9.0,87,0.00,,,0.00,,2013-05-24 08:51:00,
2013-05-24 04:01:00,46.0,43.0,-100.00,ESE,115,6.0,9.0,86,0.00,,,0.00,,2013-05-24 09:01:00,
2013-05-24 04:11:00,45.0,41.0,-100.00,ESE,105,7.0,9.0,86,0.00,,,0.00,,2013-05-24 09:11:00,
2013-05-24 04:21:00,45.0,41.0,-100.00,ESE,105,7.0,9.0,87,0.00,,,0.00,,2013-05-24 09:21:00,
2013-05-24 04:32:00,45.0,41.0,-100.00,ESE,115,7.0,9.0,87,0.00,,,0.00,,2013-05-24 09:32:00,
2013-05-24 04:42:00,45.0,43.0,-100.00,ESE,115,6.0,9.0,87,0.00,,,0.00,,2013-05-24 09:42:00,
2013-05-24 04:52:00,45.0,43.0,-100.00,ESE,105,6.0,9.0,89,0.00,,,0.00,,2013-05-24 09:52:00,
2013-05-24 05:02:00,45.0,43.0,-100.00,ESE,110,6.0,10.0,89,0.00,,,0.00,,2013-05-24 10:02:00,
2013-05-24 05:12:00,45.0,43.0,-100.00,ESE,110,6.0,10.0,89,0.00,,,0.00,,2013-05-24 10:12:00,
2013-05-24 05:22:00,45.0,43.0,-100.00,ESE,115,6.0,11.0,89,0.00,,,0.00,,2013-05-24 10:22:00,
2013-05-24 05:32:00,45.0,43.0,-100.00,SE,130,6.0,9.0,89,0.00,,,0.00,,2013-05-24 10:32:00,
2013-05-24 05:42:00,45.0,43.0,-100.00,ESE,115,7.0,12.0,89,0.00,,,0.00,,2013-05-24 10:42:00,
2013-05-24 05:52:00,45.0,41.0,-100.00,SE,130,6.0,12.0,88,0.00,,,0.00,,2013-05-24 10:52:00,
2013-05-24 06:02:00,45.0,41.0,-100.00,ESE,105,6.0,12.0,88,0.00,,,0.00,,2013-05-24 11:02:00,
2013-05-24 06:12:00,45.0,41.0,-100.00,ESE,105,9.0,12.0,89,0.00,,,0.00,,2013-05-24 11:12:00,
2013-05-24 06:22:00,45.0,41.0,-100.00,ESE,105,6.0,12.0,88,0.00,,,0.00,,2013-05-24 11:22:00,
2013-05-24 06:32:00,45.0,41.0,-100.00,SE,125,6.0,12.0,87,0.00,,,0.00,,2013-05-24 11:32:00,
2013-05-24 06:42:00,45.0,41.0,-100.00,SE,145,6.0,12.0,87,0.00,,,0.00,,2013-05-24 11:42:00,
2013-05-24 06:51:00,46.0,41.0,-100.00,SE,130,8.0,12.0,86,0.00,,,0.00,,2013-05-24 11:51:00,
2013-05-24 07:02:00,46.0,43.0,-100.00,ESE,120,7.0,14.0,85,0.00,,,0.00,,2013-05-24 12:02:00,
2013-05-24 07:11:00,46.0,43.0,-100.00,SE,125,7.0,12.0,85,0.00,,,0.00,,2013-05-24 12:11:00,
2013-05-24 07:21:00,47.0,43.0,-100.00,SE,125,7.0,12.0,84,0.00,,,0.00,,2013-05-24 12:21:00,
2013-05-24 07:32:00,47.0,43.0,-100.00,SE,140,9.0,14.0,83,0.00,,,0.00,,2013-05-24 12:32:00,
2013-05-24 07:42:00,48.0,43.0,-100.00,SSE,150,11.0,18.0,80,0.00,,,0.00,,2013-05-24 12:42:00,
2013-05-24 07:52:00,48.0,43.0,-100.00,SE,145,10.0,17.0,79,0.00,,,0.00,,2013-05-24 12:52:00,
2013-05-24 08:02:00,49.0,43.0,-100.00,SE,135,9.0,16.0,79,0.00,,,0.00,,2013-05-24 13:02:00,
2013-05-24 08:11:00,50.0,43.0,-100.00,SE,145,11.0,16.0,76,0.00,,,0.00,,2013-05-24 13:11:00,
2013-05-24 08:21:00,51.0,43.0,-100.00,SE,145,8.0,17.0,75,0.00,,,0.00,,2013-05-24 13:21:00,
2013-05-24 08:32:00,52.0,43.0,-100.00,SSE,150,10.0,15.0,73,0.00,,,0.00,,2013-05-24 13:32:00,
2013-05-24 08:41:00,53.0,45.0,-100.00,SE,140,11.0,16.0,71,0.00,,,0.00,,2013-05-24 13:41:00,
2013-05-24 08:52:00,53.0,45.0,-100.00,SSE,160,12.0,16.0,69,0.00,,,0.00,,2013-05-24 13:52:00,
2013-05-24 09:01:00,55.0,45.0,-100.00,SSE,160,9.0,15.0,67,0.00,,,0.00,,2013-05-24 14:01:00,
2013-05-24 09:11:00,55.0,45.0,-100.00,SSE,150,10.0,16.0,65,0.00,,,0.00,,2013-05-24 14:11:00,
2013-05-24 09:21:00,57.0,45.0,-100.00,SSE,155,17.0,22.0,61,0.00,,,0.00,,2013-05-24 14:21:00,
2013-05-24 09:31:00,58.0,45.0,-100.00,SSE,150,16.0,25.0,59,0.00,,,0.00,,2013-05-24 14:31:00,
2013-05-24 09:42:00,57.0,43.0,-100.00,SSE,155,16.0,22.0,59,0.00,,,0.00,,2013-05-24 14:42:00,
2013-05-24 09:52:00,59.0,43.0,-100.00,South,175,20.0,26.0,56,0.00,,,0.00,,2013-05-24 14:52:00,
2013-05-24 10:02:00,60.0,45.0,-100.00,South,175,18.0,24.0,55,0.00,,,0.00,,2013-05-24 15:02:00,
2013-05-24 10:11:00,60.0,45.0,-100.00,South,175,20.0,26.0,54,0.00,,,0.00,,2013-05-24 15:11:00,
2013-05-24 10:21:00,61.0,45.0,-100.00,South,175,21.0,27.0,54,0.00,,,0.00,,2013-05-24 15:21:00,
2013-05-24 10:32:00,62.0,45.0,-100.00,South,180,21.0,26.0,54,0.00,,,0.00,,2013-05-24 15:32:00,
2013-05-24 10:43:00,62.0,45.0,-100.00,SSW,195,19.0,28.0,54,0.00,,,0.00,,2013-05-24 15:43:00,
2013-05-24 10:52:00,63.0,46.0,-100.00,South,185,15.0,26.0,53,0.00,,,0.00,,2013-05-24 15:52:00,
2013-05-24 11:03:00,63.0,45.0,-100.00,South,170,17.0,24.0,53,0.00,,,0.00,,2013-05-24 16:03:00,
2013-05-24 11:12:00,62.0,45.0,-100.00,SSE,155,17.0,24.0,53,0.00,,,0.00,,2013-05-24 16:12:00,
2013-05-24 11:22:00,64.0,46.0,-100.00,South,175,18.0,26.0,51,0.00,,,0.00,,2013-05-24 16:22:00,
2013-05-24 11:32:00,64.0,46.0,-100.00,South,180,21.0,26.0,51,0.00,,,0.00,,2013-05-24 16:32:00,
2013-05-24 11:42:00,65.0,46.0,-100.00,South,185,19.0,26.0,51,0.00,,,0.00,,2013-05-24 16:42:00,
2013-05-24 11:52:00,65.0,46.0,-100.00,South,190,19.0,26.0,50,0.00,,,0.00,,2013-05-24 16:52:00,
2013-05-24 12:02:00,65.0,46.0,-100.00,South,185,16.0,25.0,49,0.00,,,0.00,,2013-05-24 17:02:00,
2013-05-24 12:12:00,65.0,46.0,-100.00,SSE,160,15.0,26.0,49,0.00,,,0.00,,2013-05-24 17:12:00,
2013-05-24 12:22:00,66.0,46.0,-100.00,South,180,21.0,29.0,48,0.00,,,0.00,,2013-05-24 17:22:00,
2013-05-24 12:32:00,67.0,46.0,-100.00,South,170,21.0,26.0,47,0.00,,,0.00,,2013-05-24 17:32:00,
2013-05-24 12:41:00,67.0,46.0,-100.00,South,175,17.0,30.0,46,0.00,,,0.00,,2013-05-24 17:41:00,
2013-05-24 12:52:00,67.0,46.0,-100.00,SSE,155,18.0,24.0,46,0.00,,,0.00,,2013-05-24 17:52:00,
2013-05-24 13:01:00,68.0,46.0,-100.00,South,185,18.0,26.0,44,0.00,,,0.00,,2013-05-24 18:01:00,
2013-05-24 13:11:00,69.0,46.0,-100.00,SSE,165,17.0,27.0,44,0.00,,,0.00,,2013-05-24 18:11:00,
2013-05-24 13:21:00,69.0,46.0,-100.00,SSE,155,20.0,27.0,43,0.00,,,0.00,,2013-05-24 18:21:00,
2013-05-24 13:32:00,70.0,46.0,-100.00,South,190,23.0,30.0,42,0.00,,,0.00,,2013-05-24 18:32:00,
2013-05-24 13:41:00,69.0,46.0,-100.00,SSE,165,21.0,29.0,43,0.00,,,0.00,,2013-05-24 18:41:00,
2013-05-24 13:51:00,71.0,46.0,-100.00,South,170,23.0,31.0,42,0.00,,,0.00,,2013-05-24 18:51:00,
2013-05-24 14:01:00,71.0,46.0,-100.00,South,175,23.0,30.0,41,0.00,,,0.00,,2013-05-24 19:01:00,
2013-05-24 14:11:00,70.0,46.0,-100.00,South,175,21.0,30.0,42,0.00,,,0.00,,2013-05-24 19:11:00,
2013-05-24 14:21:00,72.0,46.0,-100.00,SSE,165,24.0,31.0,40,0.00,,,0.00,,2013-05-24 19:21:00,
2013-05-24 14:32:00,71.0,46.0,-100.00,South,170,26.0,30.0,39,0.00,,,0.00,,2013-05-24 19:32:00,
2013-05-24 14:41:00,71.0,46.0,-100.00,South,170,21.0,29.0,39,0.00,,,0.00,,2013-05-24 19:41:00,
2013-05-24 14:52:00,71.0,46.0,-100.00,South,170,22.0,32.0,39,0.00,,,0.00,,2013-05-24 19:52:00,
2013-05-24 15:02:00,73.0,46.0,-100.00,South,190,26.0,34.0,39,0.00,,,0.00,,2013-05-24 20:02:00,
2013-05-24 15:11:00,72.0,46.0,-100.00,South,190,22.0,34.0,39,0.00,,,0.00,,2013-05-24 20:11:00,
2013-05-24 15:21:00,71.0,46.0,-100.00,South,185,25.0,31.0,41,0.00,,,0.00,,2013-05-24 20:21:00,
2013-05-24 15:32:00,70.0,46.0,-100.00,SSW,195,18.0,24.0,41,0.00,,,0.00,,2013-05-24 20:32:00,
2013-05-24 15:41:00,69.0,45.0,-100.00,SSE,160,21.0,27.0,41,0.00,,,0.00,,2013-05-24 20:41:00,
2013-05-24 15:51:00,70.0,45.0,-100.00,South,175,21.0,29.0,41,0.00,,,0.00,,2013-05-24 20:51:00,
2013-05-24 16:01:00,72.0,48.0,-100.00,South,180,20.0,27.0,41,0.00,,,0.00,,2013-05-24 21:01:00,
2013-05-24 16:11:00,72.0,46.0,-100.00,South,185,24.0,29.0,41,0.00,,,0.00,,2013-05-24 21:11:00,
2013-05-24 16:21:00,72.0,46.0,-100.00,South,180,26.0,31.0,41,0.00,,,0.00,,2013-05-24 21:21:00,
2013-05-24 16:32:00,71.0,46.0,-100.00,South,180,19.0,31.0,42,0.00,,,0.00,,2013-05-24 21:32:00,
2013-05-24 16:42:00,70.0,46.0,-100.00,South,175,20.0,31.0,42,0.00,,,0.00,,2013-05-24 21:42:00,
2013-05-24 16:52:00,70.0,46.0,-100.00,South,185,15.0,28.0,43,0.00,,,0.00,,2013-05-24 21:52:00,
2013-05-24 17:02:00,69.0,46.0,-100.00,SW,215,12.0,19.0,46,0.00,,,0.00,,2013-05-24 22:02:00,
2013-05-24 17:12:00,68.0,48.0,-100.00,WNW,300,7.0,19.0,47,0.00,,,0.00,,2013-05-24 22:12:00,
2013-05-24 17:22:00,65.0,50.0,-100.00,WNW,300,3.0,7.0,57,0.00,,,0.00,,2013-05-24 22:22:00,
2013-05-24 17:33:00,64.0,55.0,-100.00,NE,50,4.0,6.0,72,0.00,,,0.00,,2013-05-24 22:33:00,
2013-05-24 17:42:00,62.0,55.0,-100.00,ESE,110,12.0,-999.0,79,0.00,,,0.00,,2013-05-24 22:42:00,
2013-05-24 17:52:00,62.0,55.0,-100.00,ESE,115,7.0,9.0,82,0.00,,,0.00,,2013-05-24 22:52:00,
2013-05-24 18:02:00,61.0,57.0,-100.00,SE,140,9.0,14.0,86,0.00,,,0.00,,2013-05-24 23:02:00,
2013-05-24 18:11:00,61.0,57.0,-100.00,SE,145,11.0,17.0,87,0.00,,,0.00,,2013-05-24 23:11:00,
2013-05-24 18:22:00,61.0,57.0,-100.00,SE,140,7.0,17.0,86,0.00,,,0.00,,2013-05-24 23:22:00,
2013-05-24 18:32:00,61.0,57.0,-100.00,ESE,115,5.0,11.0,86,0.00,,,0.00,,2013-05-24 23:32:00,
2013-05-24 18:42:00,60.0,57.0,-100.00,East,100,11.0,13.0,93,0.00,,,0.00,,2013-05-24 23:42:00,
2013-05-24 18:52:00,60.0,59.0,-100.00,ESE,110,9.0,16.0,93,0.00,,,0.00,,2013-05-24 23:52:00,
2013-05-24 19:01:00,61.0,59.0,-100.00,SE,140,9.0,17.0,91,0.00,,,0.00,,2013-05-25 00:01:00,
2013-05-24 19:11:00,60.0,59.0,-100.00,SE,130,7.0,17.0,92,0.00,,,0.00,,2013-05-25 00:11:00,
2013-05-24 19:21:00,60.0,59.0,-100.00,SE,130,7.0,14.0,94,0.00,,,0.00,,2013-05-25 00:21:00,
2013-05-24 19:32:00,60.0,59.0,-100.00,SE,140,8.0,14.0,94,0.00,,,0.00,,2013-05-25 00:32:00,
2013-05-24 19:41:00,61.0,59.0,-100.00,SE,145,9.0,12.0,91,0.00,,,0.00,,2013-05-25 00:41:00,
2013-05-24 19:51:00,61.0,59.0,-100.00,SSE,150,7.0,12.0,89,0.00,,,0.00,,2013-05-25 00:51:00,
2013-05-24 20:01:00,61.0,59.0,-100.00,SE,145,9.0,15.0,89,0.00,,,0.00,,2013-05-25 01:01:00,
2013-05-24 20:11:00,61.0,59.0,-100.00,SE,140,10.0,17.0,89,0.00,,,0.00,,2013-05-25 01:11:00,
2013-05-24 20:22:00,61.0,57.0,-100.00,SE,140,10.0,16.0,89,0.00,,,0.00,,2013-05-25 01:22:00,
2013-05-24 20:32:00,61.0,59.0,-100.00,SE,140,11.0,16.0,90,0.00,,,0.00,,2013-05-25 01:32:00,
2013-05-24 20:41:00,61.0,57.0,-100.00,SSE,150,12.0,18.0,90,0.00,,,0.00,,2013-05-25 01:41:00,
2013-05-24 20:52:00,61.0,57.0,-100.00,SSE,150,12.0,18.0,89,0.00,,,0.00,,2013-05-25 01:52:00,
2013-05-24 21:01:00,61.0,57.0,-100.00,SSE,160,12.0,19.0,88,0.00,,,0.00,,2013-05-25 02:01:00,
2013-05-24 21:11:00,60.0,57.0,-100.00,SSE,160,14.0,20.0,89,0.00,,,0.00,,2013-05-25 02:11:00,
2013-05-24 21:21:00,60.0,57.0,-100.00,SSE,155,12.0,17.0,92,0.00,,,0.00,,2013-05-25 02:21:00,
2013-05-24 21:31:00,60.0,57.0,-100.00,SSE,160,15.0,21.0,93,0.00,,,0.00,,2013-05-25 02:31:00,
2013-05-24 21:42:00,60.0,57.0,-100.00,SSE,160,13.0,18.0,93,0.00,,,0.00,,2013-05-25 02:42:00,
2013-05-24 21:51:00,59.0,57.0,-100.00,SSE,160,14.0,17.0,93,0.00,,,0.00,,2013-05-25 02:51:00,
2013-05-24 22:01:00,59.0,57.0,-100.00,SSE,160,12.0,16.0,94,0.00,,,0.00,,2013-05-25 03:01:00,
2013-05-24 22:11:00,59.0,57.0,-100.00,SSE,160,15.0,18.0,94,0.00,,,0.00,,2013-05-25 03:11:00,
2013-05-24 22:21:00,59.0,57.0,-100.00,SSE,160,16.0,18.0,94,0.00,,,0.00,,2013-05-25 03:21:00,
2013-05-24 22:32:00,60.0,57.0,-100.00,SSE,160,15.0,18.0,93,0.00,,,0.00,,2013-05-25 03:32:00,
2013-05-24 22:43:00,59.0,57.0,-100.00,SSE,160,15.0,20.0,93,0.00,,,0.00,,2013-05-25 03:43:00,
2013-05-24 22:53:00,59.0,57.0,-100.00,SSE,160,16.0,20.0,93,0.00,,,0.00,,2013-05-25 03:53:00,
2013-05-24 23:02:00,59.0,57.0,-100.00,SSE,160,18.0,24.0,92,0.00,,,0.00,,2013-05-25 04:02:00,
2013-05-24 23:12:00,59.0,57.0,-100.00,SSE,160,17.0,24.0,93,0.00,,,0.00,,2013-05-25 04:12:00,
2013-05-24 23:23:00,59.0,57.0,-100.00,SSE,160,18.0,24.0,92,0.00,,,0.00,,2013-05-25 04:23:00,
2013-05-24 23:33:00,59.0,57.0,-100.00,SSE,160,17.0,24.0,89,0.00,,,0.00,,2013-05-25 04:33:00,
2013-05-24 23:43:00,59.0,55.0,-100.00,SSE,155,17.0,24.0,88,0.00,,,0.00,,2013-05-25 04:43:00,
2013-05-24 23:52:00,59.0,55.0,-100.00,SSE,160,17.0,21.0,89,0.00,,,0.00,,2013-05-25 04:52:00,